SCP
0 0 0 0 0 0 0 0 0 0 0 0 0 0 0 0 0 0 0 0 0 0 0 0 0 0 0 0 0 0 0 0 0 0 0 0 0 0 0 0 0 0 0
0 0 0 0 0 0 0 0 0 0 0 0 0 0 0 0 0 0 0 0 0 0 0 0 0 0 0 0 0 0 0 0 0 0 0 0 0 0 0 0 0 0 0
0 0 0 0 0 0 0 0 0 0 0 0 0 0 0 0 0 0 0 0 0 0 0 0 0 0 0 0 0 0 0 0 0 0 0 0 0 0 0 0 0 0 0
0 0 0 0 0 0 0 0 0 0 0 0 0 0 0 0 0 0 0 0 0 0 0 0 0 0 0 0 0 0 0 0 0 0 0 0 0 0 0 0 0 0 0
0 0 0 0 0 0 0 0 0 0 0 0 0 0 0 0 0 0 0 0 0 0 0 0 0 0 0 0 0 0 0 0 0 0 0 0 0 0 0 0 0 0 0
0 0 0 0 0 0 0 0 0 0 0 0 0 0 0 0 0 0 0 0 0 0 0 0 0 0 0 0 0 0 0 0 0 0 0 0 0 0 0 0 0 0 0
0 0 0 0 0 0 0 0 0 0 0 0 0 0 0 0 0 0 0 0 0 0 0 0 0 0 0 0 0 0 0 0 0 0 0 0 0 0 0 0 0 0 0
0 0 0 0 0 0 0 0 0 0 0 0 0 0 0 0 0 0 0 0 0 0 0 0 0 0 0 0 0 0 0 0 0 0 0 0 0 0 0 0 0 0 0
0 0 0 0 0 0 0 0 0 0 0 0 0 0 0 0 0 0 0 0 0 0 0 0 0 0 0 0 0 0 0 0 0 0 0 0 0 0 0 0 0 0 0
0 0 0 0 0 0 0 0 0 0 0 0 0 0 0 0 0 0 0 0 0 0 0 0 0 0 0 0 0 0 0 0 0 0 0 0 0 0 0 0 0 0 0
0 0 0 0 0 0 0 0 0 0 0 0 0 0 0 0 0 0 0 0 0 0 0 0 0 0 0 0 0 0 0 0 0 0 0 0 0 0 0 0 0 0 0
0 0 0 0 0 0 0 -0 0 0 0 0 0 0 0 0 0 0 0 0 0 0 0 0 0 0 0 0 0 0 0 0 0 0 0 0 0 0 0 0 0 0 0
0 0 0 0 0 0 -0 -0 0 0 0 0 0 0 0 0 0 0 0 0 0 0 0 0 0 0 0 0 0 0 0 0 0 0 0 0 0 0 0 0 0 0 0
0 0 0 0 0 0 0 0 0 0 0 0 0 0 0 0 0 0 0 0 0 0 0 0 0 0 0 0 0 0 0 0 0 0 0 0 0 0 0 0 0 0 0
0 0 0 0 0 0 0 0 0 0 0 0 0 0 0 0 0 0 0 0 0 0 0 0 0 0 0 0 0 0 0 0 0 0 0 0 0 0 0 0 0 0 0
0 0 0 0 0 0 0 0 0 0 0 0 0 0 0 0 0 0 0 0 0 0 0 0 0 0 0 0 0 0 0 0 0 0 0 0 0 0 0 0 0 0 0
0 0 0 0 0 0 0 0 0 0 0 0 0 0 0 0 0 0 0 0 0 0 0 0 0 0 0 0 0 0 0 0 0 0 0 0 0 0 0 0 0 0 0
0 0 0 0 0 0 0 0 0 0 0 0 0 0 0 0 0 0 0 0 0 0 0 0 0 0 0 0 0 0 0 0 0 0 0 0 0 0 0 0 0 0 0
0 0 0 0 0 0 0 0 0 0 0 0 0 0 0 0 0 0 0 0 0 0 0 0 0 0 0 0 0 0 0 0 0 0 0 0 0 0 0 0 0 0 0
0 0 0 0 0 0 0 0 0 0 0 0 0 0 0 0 0 0 0 0 0 0 0 0 0 0 0 0 0 0 0 0 0 0 0 0 0 0 0 0 0 0 0
0 0 0 0 0 0 0 0 0 0 0 0 0 0 0 0 0 0 0 0 0 0 0 0 0 0 0 0 0 0 0 0 0 0 0 0 0 0 0 0 0 0 0
0 0 0 0 0 0 0 0 0 0 0 0 0 0 0 0 0 0 0 0 0 0 0 0 0 0 0 0 0 0 0 0 0 0 0 0 0 0 0 0 0 0 0
0 0 0 0 0 0 0 0 0 0 0 0 0 0 0 0 0 0 0 0 0 0 0 0 0 0 0 0 0 0 0 0 0 0 0 0 0 0 0 0 0 0 0
0 0 0 0 0 0 0 0 0 0 0 0 0 0 0 0 0 0 0 0 0 0 0 0 0 0 0 0 0 0 0 0 0 0 0 0 0 0 0 0 0 0 0
0 0 0 0 0 0 0 0 0 0 0 0 0 0 0 0 0 0 0 0 0 0 0 0 0 0 0 0 0 0 0 0 0 0 0 0 0 0 0 0 0 0 0
0 0 0 0 0 0 0 0 0 0 0 0 0 0 0 0 0 0 0 0 0 0 0 0 0 0 0 0 0 0 0 0 0 0 0 0 0 0 0 0 0 0 0
Wind_Speed
7 6 6 6 7 7 6 7 7 7 7 6 6 5 4 3 2 1 1 1 2 2 2 3 3 4 3 3 3 3 2 3 4 3 2 2 3 4 3 2 3 5 6
6 6 6 7 7 7 8 8 8 8 8 8 7 7 6 6 5 3 3 3 2 3 4 5 5 5 5 4 4 4 3 3 4 4 3 3 4 4 3 4 5 6 5
6 6 7 8 8 8 8 8 8 8 8 9 9 9 8 8 7 6 6 6 5 5 5 6 6 7 6 4 5 4 3 3 3 4 3 2 2 3 3 4 6 5 6
6 6 6 7 7 7 7 7 8 8 9 9 9 9 8 8 8 7 8 8 8 7 7 7 6 6 6 6 5 5 4 4 4 4 3 2 2 3 3 3 3 3 4
5 6 6 6 6 7 7 7 8 9 9 8 8 8 8 7 7 8 8 8 8 8 8 8 7 7 8 5 4 4 4 3 3 2 2 2 2 2 3 3 3 2 3
5 5 5 6 6 6 7 7 8 8 8 8 9 8 8 7 12 14 10 8 8 8 8 8 7 7 7 8 8 6 4 2 2 1 1 2 2 2 2 1 1 1 3
5 5 5 6 6 7 7 8 8 8 8 9 9 9 9 11 15 15 15 9 8 7 7 6 5 6 7 4 4 4 1 0 1 1 1 1 1 1 1 1 2 3 4
5 5 5 6 6 6 7 8 7 7 7 7 8 8 8 11 15 15 15 9 8 7 6 5 5 4 4 3 2 2 1 1 2 1 1 2 1 2 2 3 3 4 5
5 5 5 5 5 6 6 6 6 6 7 7 6 7 7 8 12 12 11 5 5 5 4 4 4 3 3 2 2 1 2 3 3 4 5 6 9 10 7 2 2 2 4
4 4 5 5 5 5 5 5 5 5 5 5 5 5 5 5 9 9 8 3 3 2 2 2 3 3 3 3 2 2 2 2 3 4 5 6 5 7 10 4 4 3 3
4 4 4 4 4 4 4 4 4 4 4 4 4 3 3 4 6 8 8 3 2 2 1 1 1 2 4 6 5 2 4 4 2 3 4 4 4 3 4 3 3 4 4
3 4 3 3 3 3 3 2 2 3 3 2 2 2 2 2 4 5 6 6 5 2 2 1 1 4 6 7 5 6 8 7 2 3 3 3 3 3 3 3 3 4 5
4 4 3 3 3 3 2 1 1 1 1 1 1 2 1 1 2 4 4 5 5 2 1 4 5 6 7 5 7 8 6 3 3 3 3 3 3 3 3 3 4 6 7
5 4 4 3 2 2 2 1 2 2 2 2 2 1 1 1 1 2 2 3 4 3 2 4 7 8 6 7 6 4 2 3 3 3 3 3 3 3 3 3 4 4 6
5 4 3 3 3 3 3 3 3 3 3 2 1 1 1 1 2 4 3 2 2 3 4 2 3 3 2 3 2 3 3 3 3 3 3 4 4 4 4 4 4 4 6
5 4 3 3 2 3 3 2 4 3 4 4 3 2 2 2 5 6 7 8 9 9 5 3 3 3 3 3 3 3 3 3 3 3 3 4 5 6 7 6 6 6 8
5 5 3 3 3 2 2 3 1 1 2 1 0 1 2 4 5 6 7 8 10 9 3 3 3 3 3 3 3 3 3 4 3 3 4 5 6 6 7 7 7 7 8
6 5 5 3 3 3 2 2 1 1 1 2 3 3 3 5 6 7 8 7 5 4 2 3 3 3 3 3 4 4 4 4 4 5 5 6 6 7 7 8 7 8 9
5 4 4 3 3 3 2 2 1 1 1 1 1 2 4 5 7 8 6 2 3 4 3 3 3 4 4 4 4 4 5 5 6 6 6 7 6 7 8 8 8 13 12
5 8 6 4 3 3 2 2 2 2 2 2 2 2 1 2 2 3 3 3 3 4 4 4 4 4 4 4 4 5 5 6 6 6 7 7 7 7 9 10 9 10 9
5 6 8 4 3 3 3 3 2 2 2 2 2 3 4 2 3 4 3 3 4 4 4 4 4 5 5 5 5 6 7 7 7 7 7 7 7 8 8 9 10 10 10
5 5 4 4 3 3 3 3 2 2 2 3 2 3 6 3 3 4 4 4 4 4 4 4 4 5 5 5 5 6 7 8 8 8 8 8 8 9 9 9 10 10 10
6 6 5 4 4 5 4 3 3 3 3 3 3 3 3 3 4 4 4 4 4 4 4 4 5 6 6 5 6 6 8 9 8 8 9 9 8 9 9 10 12 13 13
6 6 6 5 4 4 4 4 4 4 4 4 3 3 3 4 4 5 4 4 5 5 5 5 6 8 11 9 7 7 8 10 9 9 11 11 11 11 11 12 13 15 14
6 6 6 5 5 5 4 4 4 4 4 4 4 4 3 4 4 5 5 5 6 6 7 7 6 8 10 12 11 10 15 21 19 13 11 11 13 14 14 15 14 15 15
6 6 5 5 5 5 5 5 4 4 4 4 4 4 4 4 5 5 5 5 5 6 7 7 8 10 11 11 12 16 20 21 22 23 15 11 13 13 14 14 16 16 16
Wind_Direction
354 346 347 352 355 360 4 2 360 0 2 360 357 3 10 13 20 47 182 160 181 166 137 149 138 122 123 118 122 135 138 140 146 139 130 133 156 170 177 201 236 247 257
355 356 5 10 10 13 12 9 9 12 14 16 18 24 28 30 37 50 62 76 103 118 113 113 114 112 109 108 112 114 116 118 136 150 155 160 178 184 192 222 240 245 244
2 13 19 18 16 16 15 15 19 22 24 27 30 32 32 35 43 52 63 68 72 81 97 110 115 117 112 109 108 109 104 95 103 134 140 141 160 183 200 227 239 246 252
18 27 26 23 21 20 21 27 31 34 35 36 39 40 40 43 49 58 68 73 75 76 82 92 100 110 117 117 111 109 104 97 99 113 122 140 167 184 195 221 243 240 255
29 34 31 31 30 29 31 35 40 42 43 42 46 46 45 49 56 66 71 79 82 80 76 77 84 101 115 112 115 114 112 112 117 126 140 154 178 189 209 211 231 260 274
38 40 37 40 40 38 40 43 47 48 47 49 50 51 51 58 72 76 79 75 78 80 79 73 76 79 92 97 108 112 114 125 140 147 159 181 205 216 207 192 206 296 291
44 45 45 48 50 47 50 52 51 50 51 53 53 55 60 66 74 78 79 76 73 71 71 70 69 65 61 59 80 86 75 351 197 163 193 229 241 224 188 240 245 243 249
51 49 49 55 58 56 57 57 55 56 57 57 56 58 62 66 73 77 78 73 72 69 67 69 75 72 64 53 47 49 326 279 257 231 209 247 259 241 213 224 238 263 269
62 53 51 59 65 65 63 60 59 64 63 60 59 60 61 62 69 75 76 69 73 70 66 63 63 63 53 32 25 330 307 301 290 278 269 274 278 279 273 262 273 288 290
72 69 65 67 74 74 70 68 69 73 74 74 69 66 66 61 66 68 70 70 73 72 69 68 59 40 5 358 5 340 322 322 348 338 315 303 293 286 283 251 204 220 254
97 93 86 82 85 86 80 77 84 86 84 79 78 72 71 68 58 53 51 52 44 43 29 23 43 12 348 336 337 334 309 319 326 310 298 292 290 278 269 250 212 199 219
125 115 107 101 99 96 93 91 107 119 111 106 96 75 56 59 62 48 43 37 28 25 15 27 7 344 332 327 323 310 313 322 320 300 294 290 289 285 280 275 268 254 238
149 138 132 126 121 126 122 112 104 105 106 106 101 94 55 44 49 40 24 13 8 10 351 341 329 322 324 325 316 313 322 323 304 295 290 284 275 270 275 279 276 266 260
161 154 148 141 135 120 95 57 50 39 40 58 69 69 21 3 34 20 359 350 352 352 349 328 321 310 303 295 297 302 284 258 274 270 278 280 285 286 279 269 272 278 279
159 156 154 149 139 112 82 59 74 68 68 75 73 57 41 359 346 351 348 343 341 317 332 329 309 300 298 296 292 287 281 285 290 274 277 288 295 294 291 293 283 284 279
162 166 168 162 153 147 138 100 73 107 80 69 65 46 1 338 333 337 333 329 325 320 330 317 305 308 309 311 313 310 307 300 288 281 283 288 293 293 295 293 286 282 280
170 171 168 165 166 166 157 157 175 186 185 181 198 339 331 326 326 323 322 322 317 313 306 292 294 299 294 292 287 284 284 285 284 280 278 279 280 283 285 286 284 281 279
167 171 167 169 168 165 164 159 159 177 241 259 231 242 283 308 310 308 311 321 316 313 275 274 278 282 282 281 279 278 280 285 284 281 279 277 276 278 279 278 277 276 279
165 167 168 157 153 152 150 151 173 206 244 268 272 262 260 296 305 300 298 280 282 290 289 283 276 275 274 273 272 272 272 275 275 275 275 273 271 270 271 271 273 277 280
171 171 162 156 156 159 166 182 203 221 241 258 267 260 270 304 295 294 281 260 264 271 275 274 274 272 270 268 268 269 271 271 273 270 271 270 269 267 270 271 272 274 274
164 169 169 160 167 173 178 192 203 213 233 246 254 263 274 265 275 278 276 268 264 266 266 267 268 270 267 267 266 266 269 271 269 269 270 270 269 269 269 270 271 272 274
162 164 167 173 172 175 183 190 197 214 236 250 255 273 286 272 264 268 266 267 264 262 259 260 262 260 258 260 263 267 269 271 270 269 269 270 270 271 272 272 272 273 273
162 163 168 173 173 193 196 193 202 215 230 240 248 252 259 254 258 263 264 264 266 267 265 262 265 269 266 260 255 257 265 269 269 268 271 274 274 273 273 273 273 273 273
167 169 173 176 178 185 193 200 207 216 225 234 241 248 251 254 261 269 269 269 269 268 266 264 265 269 272 273 268 262 261 266 266 264 260 263 266 268 268 268 269 270 271
173 175 178 180 184 191 198 203 208 217 228 236 240 246 253 259 263 267 269 269 272 272 275 273 270 272 272 272 273 272 276 280 280 276 266 262 262 262 264 266 268 271 271
177 179 182 182 185 192 198 206 212 218 225 235 240 245 252 257 262 266 269 271 273 275 278 278 274 274 276 279 279 281 286 288 289 289 285 276 272 270 270 271 272 272 274